Year,Month,Day,Hour,Minute,Value (Times are PST for temperature in C)
2018,04,22,00,00,6.60
2018,04,22,00,01,6.60
2018,04,22,00,02,6.50
2018,04,22,00,03,6.50
2018,04,22,00,04,6.40
2018,04,22,00,05,6.40
2018,04,22,00,06,6.40
2018,04,22,00,07,6.40
2018,04,22,00,08,6.40
2018,04,22,00,09,6.40
2018,04,22,00,10,6.40
2018,04,22,00,11,6.50
2018,04,22,00,12,6.50
2018,04,22,00,13,6.50
2018,04,22,00,14,6.50
2018,04,22,00,15,6.50
2018,04,22,00,16,6.50
2018,04,22,00,17,6.50
2018,04,22,00,18,6.60
2018,04,22,00,19,6.60
2018,04,22,00,20,6.60
2018,04,22,00,21,6.60
2018,04,22,00,22,6.60
2018,04,22,00,23,6.50
2018,04,22,00,24,6.50
2018,04,22,00,25,6.50
2018,04,22,00,26,6.40
2018,04,22,00,27,6.40
2018,04,22,00,28,6.40
2018,04,22,00,29,6.30
2018,04,22,00,30,6.30
2018,04,22,00,31,6.30
2018,04,22,00,32,6.20
2018,04,22,00,33,6.10
2018,04,22,00,34,6.10
2018,04,22,00,35,6.00
2018,04,22,00,36,5.90
2018,04,22,00,37,5.90
2018,04,22,00,38,5.80
2018,04,22,00,39,5.70
2018,04,22,00,40,5.70
2018,04,22,00,41,5.60
2018,04,22,00,42,5.50
2018,04,22,00,43,5.50
2018,04,22,00,44,5.40
2018,04,22,00,45,5.40
2018,04,22,00,46,5.30
2018,04,22,00,47,5.30
2018,04,22,00,48,5.20
2018,04,22,00,49,5.20
2018,04,22,00,50,5.20
2018,04,22,00,51,5.20
2018,04,22,00,52,5.10
2018,04,22,00,53,5.10
2018,04,22,00,54,5.10
2018,04,22,00,55,5.00
2018,04,22,00,56,5.00
2018,04,22,00,57,4.90
2018,04,22,00,58,4.90
2018,04,22,00,59,4.90
2018,04,22,01,00,4.90
2018,04,22,01,01,4.80
2018,04,22,01,02,4.80
2018,04,22,01,03,4.80
2018,04,22,01,04,4.80
2018,04,22,01,05,4.70
2018,04,22,01,06,4.70
2018,04,22,01,07,4.70
2018,04,22,01,08,4.70
2018,04,22,01,09,4.60
2018,04,22,01,10,4.60
2018,04,22,01,11,4.60
2018,04,22,01,12,4.50
2018,04,22,01,13,4.50
2018,04,22,01,14,4.50
2018,04,22,01,15,4.40
2018,04,22,01,16,4.40
2018,04,22,01,17,4.40
2018,04,22,01,18,4.40
2018,04,22,01,19,4.40
2018,04,22,01,20,4.30
2018,04,22,01,21,4.30
2018,04,22,01,22,4.30
2018,04,22,01,23,4.30
2018,04,22,01,24,4.30
2018,04,22,01,25,4.20
2018,04,22,01,26,4.20
2018,04,22,01,27,4.20
2018,04,22,01,28,4.20
2018,04,22,01,29,4.20
2018,04,22,01,30,4.10
2018,04,22,01,31,4.10
2018,04,22,01,32,4.10
2018,04,22,01,33,4.10
2018,04,22,01,34,4.10
2018,04,22,01,35,4.00
2018,04,22,01,36,4.00
2018,04,22,01,37,4.00
2018,04,22,01,38,3.90
2018,04,22,01,39,3.90
2018,04,22,01,40,3.90
2018,04,22,01,41,3.90
2018,04,22,01,42,3.90
2018,04,22,01,43,3.90
2018,04,22,01,44,3.80
2018,04,22,01,45,3.80
2018,04,22,01,46,3.80
2018,04,22,01,47,3.80
2018,04,22,01,48,3.80
2018,04,22,01,49,3.80
2018,04,22,01,50,3.80
2018,04,22,01,51,3.80
2018,04,22,01,52,3.80
2018,04,22,01,53,3.80
2018,04,22,01,54,3.80
2018,04,22,01,55,3.80
2018,04,22,01,56,3.80
2018,04,22,01,57,3.70
2018,04,22,01,58,3.70
2018,04,22,01,59,3.70
2018,04,22,02,00,3.70
2018,04,22,02,01,3.70
2018,04,22,02,02,3.70
2018,04,22,02,03,3.70
2018,04,22,02,04,3.70
2018,04,22,02,05,3.70
2018,04,22,02,06,3.70
2018,04,22,02,07,3.70
2018,04,22,02,08,3.70
2018,04,22,02,09,3.70
2018,04,22,02,10,3.70
2018,04,22,02,11,3.60
2018,04,22,02,12,3.60
2018,04,22,02,13,3.60
2018,04,22,02,14,3.60
2018,04,22,02,15,3.60
2018,04,22,02,16,3.60
2018,04,22,02,17,3.60
2018,04,22,02,18,3.60
2018,04,22,02,19,3.50
2018,04,22,02,20,3.50
2018,04,22,02,21,3.50
2018,04,22,02,22,3.50
2018,04,22,02,23,3.50
2018,04,22,02,24,3.40
2018,04,22,02,25,3.40
2018,04,22,02,26,3.40
2018,04,22,02,27,3.40
2018,04,22,02,28,3.30
2018,04,22,02,29,3.30
2018,04,22,02,30,3.30
2018,04,22,02,31,3.30
2018,04,22,02,32,3.30
2018,04,22,02,33,3.30
2018,04,22,02,34,3.20
2018,04,22,02,35,3.20
2018,04,22,02,36,3.20
2018,04,22,02,37,3.20
2018,04,22,02,38,3.20
2018,04,22,02,39,3.20
2018,04,22,02,40,3.20
2018,04,22,02,41,3.20
2018,04,22,02,42,3.20
2018,04,22,02,43,3.10
2018,04,22,02,44,3.10
2018,04,22,02,45,3.10
2018,04,22,02,46,3.10
2018,04,22,02,47,3.10
2018,04,22,02,48,3.20
2018,04,22,02,49,3.20
2018,04,22,02,50,3.20
2018,04,22,02,51,3.20
2018,04,22,02,52,3.20
2018,04,22,02,53,3.20
2018,04,22,02,54,3.10
2018,04,22,02,55,3.10
2018,04,22,02,56,3.10
2018,04,22,02,57,3.10
2018,04,22,02,58,3.10
2018,04,22,02,59,3.10
2018,04,22,03,00,3.10
2018,04,22,03,01,3.10
2018,04,22,03,02,3.10
2018,04,22,03,03,3.10
2018,04,22,03,04,3.10
2018,04,22,03,05,3.10
2018,04,22,03,06,3.20
2018,04,22,03,07,3.10
2018,04,22,03,08,3.10
2018,04,22,03,09,3.10
2018,04,22,03,10,3.10
2018,04,22,03,11,3.10
2018,04,22,03,12,3.10
2018,04,22,03,13,3.10
2018,04,22,03,14,3.10
2018,04,22,03,15,3.10
2018,04,22,03,16,3.10
2018,04,22,03,17,3.10
2018,04,22,03,18,3.10
2018,04,22,03,19,3.10
2018,04,22,03,20,3.10
2018,04,22,03,21,3.00
2018,04,22,03,22,3.00
2018,04,22,03,23,3.00
2018,04,22,03,24,3.00
2018,04,22,03,25,2.90
2018,04,22,03,26,2.90
2018,04,22,03,27,2.90
2018,04,22,03,28,2.90
2018,04,22,03,29,2.90
2018,04,22,03,30,2.90
2018,04,22,03,31,2.90
2018,04,22,03,32,2.90
2018,04,22,03,33,2.90
2018,04,22,03,34,2.90
2018,04,22,03,35,2.90
2018,04,22,03,36,2.80
2018,04,22,03,37,2.80
2018,04,22,03,38,2.80
2018,04,22,03,39,2.90
2018,04,22,03,40,2.90
2018,04,22,03,41,2.90
2018,04,22,03,42,2.90
2018,04,22,03,43,2.90
2018,04,22,03,44,2.90
2018,04,22,03,45,2.80
2018,04,22,03,46,2.80
2018,04,22,03,47,2.90
2018,04,22,03,48,2.80
2018,04,22,03,49,2.80
2018,04,22,03,50,2.80
2018,04,22,03,51,2.80
2018,04,22,03,52,2.80
2018,04,22,03,53,2.80
2018,04,22,03,54,2.80
2018,04,22,03,55,2.80
2018,04,22,03,56,2.80
2018,04,22,03,57,2.80
2018,04,22,03,58,2.70
2018,04,22,03,59,2.70
2018,04,22,04,00,2.70
2018,04,22,04,01,2.70
2018,04,22,04,02,2.70
2018,04,22,04,03,2.60
2018,04,22,04,04,2.60
2018,04,22,04,05,2.60
2018,04,22,04,06,2.60
2018,04,22,04,07,2.60
2018,04,22,04,08,2.60
2018,04,22,04,09,2.60
2018,04,22,04,10,2.50
2018,04,22,04,11,2.50
2018,04,22,04,12,2.50
2018,04,22,04,13,2.50
2018,04,22,04,14,2.50
2018,04,22,04,15,2.40
2018,04,22,04,16,2.40
2018,04,22,04,17,2.40
2018,04,22,04,18,2.40
2018,04,22,04,19,2.40
2018,04,22,04,20,2.30
2018,04,22,04,21,2.30
2018,04,22,04,22,2.30
2018,04,22,04,23,2.30
2018,04,22,04,24,2.30
2018,04,22,04,25,2.30
2018,04,22,04,26,2.30
2018,04,22,04,27,2.30
2018,04,22,04,28,2.30
2018,04,22,04,29,2.30
2018,04,22,04,30,2.30
2018,04,22,04,31,2.30
2018,04,22,04,32,2.30
2018,04,22,04,33,2.20
2018,04,22,04,34,2.20
2018,04,22,04,35,2.20
2018,04,22,04,36,2.20
2018,04,22,04,37,2.20
2018,04,22,04,38,2.20
2018,04,22,04,39,2.20
2018,04,22,04,40,2.20
2018,04,22,04,41,2.20
2018,04,22,04,42,2.20
2018,04,22,04,43,2.20
2018,04,22,04,44,2.20
2018,04,22,04,45,2.20
2018,04,22,04,46,2.20
2018,04,22,04,47,2.20
2018,04,22,04,48,2.20
2018,04,22,04,49,2.10
2018,04,22,04,50,2.10
2018,04,22,04,51,2.10
2018,04,22,04,52,2.10
2018,04,22,04,53,2.10
2018,04,22,04,54,2.10
2018,04,22,04,55,2.20
2018,04,22,04,56,2.20
2018,04,22,04,57,2.20
2018,04,22,04,58,2.20
2018,04,22,04,59,2.20
2018,04,22,05,00,2.20
2018,04,22,05,01,2.20
2018,04,22,05,02,2.20
2018,04,22,05,03,2.20
2018,04,22,05,04,2.20
2018,04,22,05,05,2.20
2018,04,22,05,06,2.20
2018,04,22,05,07,2.20
2018,04,22,05,08,2.20
2018,04,22,05,09,2.20
2018,04,22,05,10,2.20
2018,04,22,05,11,2.20
2018,04,22,05,12,2.30
2018,04,22,05,13,2.30
2018,04,22,05,14,2.30
2018,04,22,05,15,2.30
2018,04,22,05,16,2.30
2018,04,22,05,17,2.30
2018,04,22,05,18,2.30
2018,04,22,05,19,2.30
2018,04,22,05,20,2.20
2018,04,22,05,21,2.20
2018,04,22,05,22,2.20
2018,04,22,05,23,2.20
2018,04,22,05,24,2.20
2018,04,22,05,25,2.20
2018,04,22,05,26,2.20
2018,04,22,05,27,2.20
2018,04,22,05,28,2.20
2018,04,22,05,29,2.20
2018,04,22,05,30,2.20
2018,04,22,05,31,2.20
2018,04,22,05,32,2.20
2018,04,22,05,33,2.10
2018,04,22,05,34,2.10
2018,04,22,05,35,2.10
2018,04,22,05,36,2.10
2018,04,22,05,37,2.10
2018,04,22,05,38,2.00
2018,04,22,05,39,2.00
2018,04,22,05,40,2.00
2018,04,22,05,41,1.90
2018,04,22,05,42,1.90
2018,04,22,05,43,1.90
2018,04,22,05,44,1.80
2018,04,22,05,45,1.80
2018,04,22,05,46,1.80
2018,04,22,05,47,1.80
2018,04,22,05,48,1.80
2018,04,22,05,49,1.80
2018,04,22,05,50,1.80
2018,04,22,05,51,1.80
2018,04,22,05,52,1.80
2018,04,22,05,53,1.80
2018,04,22,05,54,1.80
2018,04,22,05,55,1.80
2018,04,22,05,56,1.80
2018,04,22,05,57,1.80
2018,04,22,05,58,1.80
2018,04,22,05,59,1.80
2018,04,22,06,00,1.80
2018,04,22,06,01,1.70
2018,04,22,06,02,1.70
2018,04,22,06,03,1.70
2018,04,22,06,04,1.70
2018,04,22,06,05,1.70
2018,04,22,06,06,1.70
2018,04,22,06,07,1.60
2018,04,22,06,08,1.60
2018,04,22,06,09,1.60
2018,04,22,06,10,1.60
2018,04,22,06,11,1.60
2018,04,22,06,12,1.60
2018,04,22,06,13,1.60
2018,04,22,06,14,1.60
2018,04,22,06,15,1.60
2018,04,22,06,16,1.70
2018,04,22,06,17,1.70
2018,04,22,06,18,1.70
2018,04,22,06,19,1.70
2018,04,22,06,20,1.70
2018,04,22,06,21,1.70
2018,04,22,06,22,1.70
2018,04,22,06,23,1.70
2018,04,22,06,24,1.70
2018,04,22,06,25,1.70
2018,04,22,06,26,1.70
2018,04,22,06,27,1.70
2018,04,22,06,28,1.70
2018,04,22,06,29,1.70
2018,04,22,06,30,1.70
2018,04,22,06,31,1.70
2018,04,22,06,32,1.70
2018,04,22,06,33,1.70
2018,04,22,06,34,1.70
2018,04,22,06,35,1.70
2018,04,22,06,36,1.70
2018,04,22,06,37,1.70
2018,04,22,06,38,1.70
2018,04,22,06,39,1.70
2018,04,22,06,40,1.70
2018,04,22,06,41,1.70
2018,04,22,06,42,1.70
2018,04,22,06,43,1.80
2018,04,22,06,44,1.80
2018,04,22,06,45,1.80
2018,04,22,06,46,1.80
2018,04,22,06,47,1.90
2018,04,22,06,48,1.90
2018,04,22,06,49,1.90
2018,04,22,06,50,2.00
2018,04,22,06,51,2.00
2018,04,22,06,52,2.10
2018,04,22,06,53,2.10
2018,04,22,06,54,2.10
2018,04,22,06,55,2.10
2018,04,22,06,56,2.20
2018,04,22,06,57,2.20
2018,04,22,06,58,2.20
2018,04,22,06,59,2.30
2018,04,22,07,00,2.30
2018,04,22,07,01,2.40
2018,04,22,07,02,2.40
2018,04,22,07,03,2.50
2018,04,22,07,04,2.60
2018,04,22,07,05,2.60
2018,04,22,07,06,2.70
2018,04,22,07,07,2.80
2018,04,22,07,08,2.90
2018,04,22,07,09,3.00
2018,04,22,07,10,3.00
2018,04,22,07,11,3.10
2018,04,22,07,12,3.20
2018,04,22,07,13,3.30
2018,04,22,07,14,3.30
2018,04,22,07,15,3.40
2018,04,22,07,16,3.40
2018,04,22,07,17,3.40
2018,04,22,07,18,3.50
2018,04,22,07,19,3.60
2018,04,22,07,20,3.70
2018,04,22,07,21,3.80
2018,04,22,07,22,3.80
2018,04,22,07,23,3.80
2018,04,22,07,24,3.80
2018,04,22,07,25,3.90
2018,04,22,07,26,3.90
2018,04,22,07,27,4.00
2018,04,22,07,28,4.00
2018,04,22,07,29,4.10
2018,04,22,07,30,4.10
2018,04,22,07,31,4.20
2018,04,22,07,32,4.20
2018,04,22,07,33,4.30
2018,04,22,07,34,4.30
2018,04,22,07,35,4.40
2018,04,22,07,36,4.50
2018,04,22,07,37,4.50
2018,04,22,07,38,4.60
2018,04,22,07,39,4.60
2018,04,22,07,40,4.70
2018,04,22,07,41,4.70
2018,04,22,07,42,4.70
2018,04,22,07,43,4.80
2018,04,22,07,44,4.80
2018,04,22,07,45,4.80
2018,04,22,07,46,4.90
2018,04,22,07,47,5.00
2018,04,22,07,48,5.10
2018,04,22,07,49,5.20
2018,04,22,07,50,5.30
2018,04,22,07,51,5.40
2018,04,22,07,52,5.50
2018,04,22,07,53,5.60
2018,04,22,07,54,5.70
2018,04,22,07,55,5.80
2018,04,22,07,56,5.90
2018,04,22,07,57,5.90
2018,04,22,07,58,6.00
2018,04,22,07,59,6.10
2018,04,22,08,00,6.20
2018,04,22,08,01,6.30
2018,04,22,08,02,6.40
2018,04,22,08,03,6.40
2018,04,22,08,04,6.50
2018,04,22,08,05,6.60
2018,04,22,08,06,6.70
2018,04,22,08,07,6.80
2018,04,22,08,08,6.80
2018,04,22,08,09,6.90
2018,04,22,08,10,7.00
2018,04,22,08,11,7.10
2018,04,22,08,12,7.10
2018,04,22,08,13,7.20
2018,04,22,08,14,7.30
2018,04,22,08,15,7.30
2018,04,22,08,16,7.30
2018,04,22,08,17,7.40
2018,04,22,08,18,7.40
2018,04,22,08,19,7.40
2018,04,22,08,20,7.50
2018,04,22,08,21,7.60
2018,04,22,08,22,7.60
2018,04,22,08,23,7.70
2018,04,22,08,24,7.80
2018,04,22,08,25,7.80
2018,04,22,08,26,7.90
2018,04,22,08,27,8.00
2018,04,22,08,28,8.10
2018,04,22,08,29,8.10
2018,04,22,08,30,8.20
2018,04,22,08,31,8.30
2018,04,22,08,32,8.30
2018,04,22,08,33,8.30
2018,04,22,08,34,8.30
2018,04,22,08,35,8.30
2018,04,22,08,36,8.40
2018,04,22,08,37,8.40
2018,04,22,08,38,8.40
2018,04,22,08,39,8.40
2018,04,22,08,40,8.40
2018,04,22,08,41,8.40
2018,04,22,08,42,8.40
2018,04,22,08,43,8.40
2018,04,22,08,44,8.50
2018,04,22,08,45,8.50
2018,04,22,08,46,8.60
2018,04,22,08,47,8.60
2018,04,22,08,48,8.60
2018,04,22,08,49,8.70
2018,04,22,08,50,8.80
2018,04,22,08,51,8.80
2018,04,22,08,52,8.90
2018,04,22,08,53,9.00
2018,04,22,08,54,9.00
2018,04,22,08,55,9.10
2018,04,22,08,56,9.20
2018,04,22,08,57,9.30
2018,04,22,08,58,9.30
2018,04,22,08,59,9.30
2018,04,22,09,00,9.30
2018,04,22,09,01,9.30
2018,04,22,09,02,9.40
2018,04,22,09,03,9.40
2018,04,22,09,04,9.40
2018,04,22,09,05,9.40
2018,04,22,09,06,9.50
2018,04,22,09,07,9.50
2018,04,22,09,08,9.50
2018,04,22,09,09,9.50
2018,04,22,09,10,9.40
2018,04,22,09,11,9.40
2018,04,22,09,12,9.40
2018,04,22,09,13,9.50
2018,04,22,09,14,9.60
2018,04,22,09,15,9.60
2018,04,22,09,16,9.60
2018,04,22,09,17,9.70
2018,04,22,09,18,9.80
2018,04,22,09,19,9.80
2018,04,22,09,20,9.70
2018,04,22,09,21,9.70
2018,04,22,09,22,9.70
2018,04,22,09,23,9.60
2018,04,22,09,24,9.60
2018,04,22,09,25,9.60
2018,04,22,09,26,9.50
2018,04,22,09,27,9.50
2018,04,22,09,28,9.50
2018,04,22,09,29,9.50
2018,04,22,09,30,9.60
2018,04,22,09,31,9.60
2018,04,22,09,32,9.70
2018,04,22,09,33,9.80
2018,04,22,09,34,9.90
2018,04,22,09,35,9.90
2018,04,22,09,36,9.80
2018,04,22,09,37,9.80
2018,04,22,09,38,9.70
2018,04,22,09,39,9.60
2018,04,22,09,40,9.60
2018,04,22,09,41,9.60
2018,04,22,09,42,9.60
2018,04,22,09,43,9.70
2018,04,22,09,44,9.80
2018,04,22,09,45,9.80
2018,04,22,09,46,9.80
2018,04,22,09,47,9.80
2018,04,22,09,48,9.80
2018,04,22,09,49,9.90
2018,04,22,09,50,10.00
2018,04,22,09,51,10.00
2018,04,22,09,52,10.00
2018,04,22,09,53,9.90
2018,04,22,09,54,9.90
2018,04,22,09,55,9.80
2018,04,22,09,56,9.80
2018,04,22,09,57,9.80
2018,04,22,09,58,9.80
2018,04,22,09,59,9.80
2018,04,22,10,00,9.90
2018,04,22,10,01,9.90
2018,04,22,10,02,10.00
2018,04,22,10,03,10.00
2018,04,22,10,04,10.10
2018,04,22,10,05,10.10
2018,04,22,10,06,10.20
2018,04,22,10,07,10.20
2018,04,22,10,08,10.30
2018,04,22,10,09,10.30
2018,04,22,10,10,10.30
2018,04,22,10,11,10.30
2018,04,22,10,12,10.30
2018,04,22,10,13,10.30
2018,04,22,10,14,10.30
2018,04,22,10,15,10.30
2018,04,22,10,16,10.30
2018,04,22,10,17,10.30
2018,04,22,10,18,10.40
2018,04,22,10,19,10.40
2018,04,22,10,20,10.30
2018,04,22,10,21,10.30
2018,04,22,10,22,10.30
2018,04,22,10,23,10.40
2018,04,22,10,24,10.40
2018,04,22,10,25,10.40
2018,04,22,10,26,10.40
2018,04,22,10,27,10.40
2018,04,22,10,28,10.40
2018,04,22,10,29,10.40
2018,04,22,10,30,10.40
2018,04,22,10,31,10.40
2018,04,22,10,32,10.40
2018,04,22,10,33,10.40
2018,04,22,10,34,10.40
2018,04,22,10,35,10.40
2018,04,22,10,36,10.40
2018,04,22,10,37,10.40
2018,04,22,10,38,10.40
2018,04,22,10,39,10.40
2018,04,22,10,40,10.40
2018,04,22,10,41,10.40
2018,04,22,10,42,10.40
2018,04,22,10,43,10.40
2018,04,22,10,44,10.50
2018,04,22,10,45,10.50
2018,04,22,10,46,10.50
2018,04,22,10,47,10.50
2018,04,22,10,48,10.50
2018,04,22,10,49,10.60
2018,04,22,10,50,10.60
2018,04,22,10,51,10.60
2018,04,22,10,52,10.70
2018,04,22,10,53,10.70
2018,04,22,10,54,10.70
2018,04,22,10,55,10.70
2018,04,22,10,56,10.70
2018,04,22,10,57,10.80
2018,04,22,10,58,10.80
2018,04,22,10,59,10.80
2018,04,22,11,00,10.90
2018,04,22,11,01,10.90
2018,04,22,11,02,11.00
2018,04,22,11,03,11.00
2018,04,22,11,04,11.00
2018,04,22,11,05,11.00
2018,04,22,11,06,11.00
2018,04,22,11,07,11.00
2018,04,22,11,08,11.10
2018,04,22,11,09,11.10
2018,04,22,11,10,11.20
2018,04,22,11,11,11.20
2018,04,22,11,12,11.10
2018,04,22,11,13,11.10
2018,04,22,11,14,11.10
2018,04,22,11,15,11.10
2018,04,22,11,16,11.10
2018,04,22,11,17,11.00
2018,04,22,11,18,11.00
2018,04,22,11,19,11.00
2018,04,22,11,20,11.10
2018,04,22,11,21,11.10
2018,04,22,11,22,11.10
2018,04,22,11,23,11.20
2018,04,22,11,24,11.20
2018,04,22,11,25,11.20
2018,04,22,11,26,11.30
2018,04,22,11,27,11.30
2018,04,22,11,28,11.40
2018,04,22,11,29,11.40
2018,04,22,11,30,11.50
2018,04,22,11,31,11.50
2018,04,22,11,32,11.60
2018,04,22,11,33,11.60
2018,04,22,11,34,11.50
2018,04,22,11,35,11.50
2018,04,22,11,36,11.50
2018,04,22,11,37,11.50
2018,04,22,11,38,11.60
2018,04,22,11,39,11.70
2018,04,22,11,40,11.80
2018,04,22,11,41,11.90
2018,04,22,11,42,11.90
2018,04,22,11,43,12.00
2018,04,22,11,44,12.00
2018,04,22,11,45,12.00
2018,04,22,11,46,11.90
2018,04,22,11,47,11.90
2018,04,22,11,48,11.90
2018,04,22,11,49,12.00
2018,04,22,11,50,12.10
2018,04,22,11,51,12.10
2018,04,22,11,52,12.10
2018,04,22,11,53,12.00
2018,04,22,11,54,12.00
2018,04,22,11,55,11.90
2018,04,22,11,56,12.00
2018,04,22,11,57,12.00
2018,04,22,11,58,12.10
2018,04,22,11,59,12.20
2018,04,22,12,00,12.20
2018,04,22,12,01,12.20
2018,04,22,12,02,12.10
2018,04,22,12,03,12.10
2018,04,22,12,04,12.00
2018,04,22,12,05,12.00
2018,04,22,12,06,12.00
2018,04,22,12,07,12.00
2018,04,22,12,08,12.00
2018,04,22,12,09,12.00
2018,04,22,12,10,12.10
2018,04,22,12,11,12.10
2018,04,22,12,12,12.10
2018,04,22,12,13,12.10
2018,04,22,12,14,12.10
2018,04,22,12,15,12.20
2018,04,22,12,16,12.30
2018,04,22,12,17,12.40
2018,04,22,12,18,12.60
2018,04,22,12,19,12.70
2018,04,22,12,20,12.80
2018,04,22,12,21,12.90
2018,04,22,12,22,12.80
2018,04,22,12,23,12.80
2018,04,22,12,24,12.80
2018,04,22,12,25,12.70
2018,04,22,12,26,12.70
2018,04,22,12,27,12.70
2018,04,22,12,28,12.70
2018,04,22,12,29,12.60
2018,04,22,12,30,12.60
2018,04,22,12,31,12.60
2018,04,22,12,32,12.60
2018,04,22,12,33,12.60
2018,04,22,12,34,12.70
2018,04,22,12,35,12.60
2018,04,22,12,36,12.70
2018,04,22,12,37,12.70
2018,04,22,12,38,12.60
2018,04,22,12,39,12.70
2018,04,22,12,40,12.70
2018,04,22,12,41,12.70
2018,04,22,12,42,12.60
2018,04,22,12,43,12.60
2018,04,22,12,44,12.60
2018,04,22,12,45,12.50
2018,04,22,12,46,12.50
2018,04,22,12,47,12.40
2018,04,22,12,48,12.50
2018,04,22,12,49,12.50
2018,04,22,12,50,12.50
2018,04,22,12,51,12.60
2018,04,22,12,52,12.60
2018,04,22,12,53,12.50
2018,04,22,12,54,12.50
2018,04,22,12,55,12.50
2018,04,22,12,56,12.40
2018,04,22,12,57,12.40
2018,04,22,12,58,12.40
2018,04,22,12,59,12.50
2018,04,22,13,00,12.50
2018,04,22,13,01,12.50
2018,04,22,13,02,12.60
2018,04,22,13,03,12.60
2018,04,22,13,04,12.60
2018,04,22,13,05,12.60
2018,04,22,13,06,12.60
2018,04,22,13,07,12.50
2018,04,22,13,08,12.50
2018,04,22,13,09,12.50
2018,04,22,13,10,12.50
2018,04,22,13,11,12.50
2018,04,22,13,12,12.60
2018,04,22,13,13,12.60
2018,04,22,13,14,12.60
2018,04,22,13,15,12.70
2018,04,22,13,16,12.70
2018,04,22,13,17,12.70
2018,04,22,13,18,12.80
2018,04,22,13,19,12.80
2018,04,22,13,20,12.80
2018,04,22,13,21,12.80
2018,04,22,13,22,12.80
2018,04,22,13,23,12.80
2018,04,22,13,24,12.80
2018,04,22,13,25,12.90
2018,04,22,13,26,12.80
2018,04,22,13,27,12.80
2018,04,22,13,28,12.80
2018,04,22,13,29,12.80
2018,04,22,13,30,12.90
2018,04,22,13,31,12.90
2018,04,22,13,32,12.90
2018,04,22,13,33,12.80
2018,04,22,13,34,12.80
2018,04,22,13,35,12.80
2018,04,22,13,36,12.90
2018,04,22,13,37,12.90
2018,04,22,13,38,12.90
2018,04,22,13,39,12.90
2018,04,22,13,40,12.90
2018,04,22,13,41,12.90
2018,04,22,13,42,12.90
2018,04,22,13,43,12.80
2018,04,22,13,44,12.80
2018,04,22,13,45,12.90
2018,04,22,13,46,12.90
2018,04,22,13,47,12.90
2018,04,22,13,48,13.00
2018,04,22,13,49,13.00
2018,04,22,13,50,13.10
2018,04,22,13,51,13.20
2018,04,22,13,52,13.30
2018,04,22,13,53,13.40
2018,04,22,13,54,13.50
2018,04,22,13,55,13.60
2018,04,22,13,56,13.60
2018,04,22,13,57,13.60
2018,04,22,13,58,13.70
2018,04,22,13,59,13.80
2018,04,22,14,00,13.90
2018,04,22,14,01,14.10
2018,04,22,14,02,14.30
2018,04,22,14,03,14.50
2018,04,22,14,04,14.60
2018,04,22,14,05,14.70
2018,04,22,14,06,14.80
2018,04,22,14,07,14.80
2018,04,22,14,08,14.80
2018,04,22,14,09,14.80
2018,04,22,14,10,14.80
2018,04,22,14,11,14.80
2018,04,22,14,12,14.80
2018,04,22,14,13,14.80
2018,04,22,14,14,14.70
2018,04,22,14,15,14.60
2018,04,22,14,16,14.70
2018,04,22,14,17,14.70
2018,04,22,14,18,14.70
2018,04,22,14,19,14.80
2018,04,22,14,20,14.90
2018,04,22,14,21,14.90
2018,04,22,14,22,14.90
2018,04,22,14,23,14.90
2018,04,22,14,24,14.80
2018,04,22,14,25,14.70
2018,04,22,14,26,14.70
2018,04,22,14,27,14.60
2018,04,22,14,28,14.60
2018,04,22,14,29,14.50
2018,04,22,14,30,14.30
2018,04,22,14,31,14.20
2018,04,22,14,32,14.10
2018,04,22,14,33,14.00
2018,04,22,14,34,13.90
2018,04,22,14,35,13.90
2018,04,22,14,36,13.80
2018,04,22,14,37,13.90
2018,04,22,14,38,13.90
2018,04,22,14,39,13.90
2018,04,22,14,40,13.90
2018,04,22,14,41,14.00
2018,04,22,14,42,14.00
2018,04,22,14,43,14.00
2018,04,22,14,44,14.00
2018,04,22,14,45,14.00
2018,04,22,14,46,14.00
2018,04,22,14,47,14.00
2018,04,22,14,48,13.90
2018,04,22,14,49,13.90
2018,04,22,14,50,13.90
2018,04,22,14,51,13.90
2018,04,22,14,52,13.80
2018,04,22,14,53,13.80
2018,04,22,14,54,13.80
2018,04,22,14,55,13.90
2018,04,22,14,56,13.90
2018,04,22,14,57,13.80
2018,04,22,14,58,13.80
2018,04,22,14,59,13.80
2018,04,22,15,00,13.80
2018,04,22,15,01,13.80
2018,04,22,15,02,13.70
2018,04,22,15,03,13.70
2018,04,22,15,04,13.80
2018,04,22,15,05,13.90
2018,04,22,15,06,13.90
2018,04,22,15,07,13.90
2018,04,22,15,08,13.90
2018,04,22,15,09,13.90
2018,04,22,15,10,13.90
2018,04,22,15,11,13.90
2018,04,22,15,12,13.90
2018,04,22,15,13,14.00
2018,04,22,15,14,14.00
2018,04,22,15,15,14.10
2018,04,22,15,16,14.20
2018,04,22,15,17,14.20
2018,04,22,15,18,14.20
2018,04,22,15,19,14.20
2018,04,22,15,20,14.20
2018,04,22,15,21,14.20
2018,04,22,15,22,14.20
2018,04,22,15,23,14.20
2018,04,22,15,24,14.20
2018,04,22,15,25,14.20
2018,04,22,15,26,14.10
2018,04,22,15,27,14.10
2018,04,22,15,28,14.00
2018,04,22,15,29,13.90
2018,04,22,15,30,13.90
2018,04,22,15,31,13.90
2018,04,22,15,32,14.00
2018,04,22,15,33,14.00
2018,04,22,15,34,14.10
2018,04,22,15,35,14.10
2018,04,22,15,36,14.10
2018,04,22,15,37,14.20
2018,04,22,15,38,14.20
2018,04,22,15,39,14.20
2018,04,22,15,40,14.20
2018,04,22,15,41,14.20
2018,04,22,15,42,14.20
2018,04,22,15,43,14.30
2018,04,22,15,44,14.30
2018,04,22,15,45,14.20
2018,04,22,15,46,14.20
2018,04,22,15,47,14.20
2018,04,22,15,48,14.20
2018,04,22,15,49,14.20
2018,04,22,15,50,14.10
2018,04,22,15,51,14.10
2018,04,22,15,52,14.20
2018,04,22,15,53,14.20
2018,04,22,15,54,14.10
2018,04,22,15,55,14.10
2018,04,22,15,56,14.10
2018,04,22,15,57,14.10
2018,04,22,15,58,14.10
2018,04,22,15,59,14.10
2018,04,22,16,00,14.20
2018,04,22,16,01,14.20
2018,04,22,16,02,14.20
2018,04,22,16,03,14.20
2018,04,22,16,04,14.20
2018,04,22,16,05,14.30
2018,04,22,16,06,14.30
2018,04,22,16,07,14.30
2018,04,22,16,08,14.30
2018,04,22,16,09,14.30
2018,04,22,16,10,14.20
2018,04,22,16,11,14.30
2018,04,22,16,12,14.30
2018,04,22,16,13,14.30
2018,04,22,16,14,14.30
2018,04,22,16,15,14.30
2018,04,22,16,16,14.30
2018,04,22,16,17,14.40
2018,04,22,16,18,14.40
2018,04,22,16,19,14.40
2018,04,22,16,20,14.40
2018,04,22,16,21,14.50
2018,04,22,16,22,14.60
2018,04,22,16,23,14.60
2018,04,22,16,24,14.70
2018,04,22,16,25,14.70
2018,04,22,16,26,14.70
2018,04,22,16,27,14.80
2018,04,22,16,28,14.90
2018,04,22,16,29,14.90
2018,04,22,16,30,14.80
2018,04,22,16,31,14.80
2018,04,22,16,32,14.80
2018,04,22,16,33,14.70
2018,04,22,16,34,14.70
2018,04,22,16,35,14.70
2018,04,22,16,36,14.60
2018,04,22,16,37,14.60
2018,04,22,16,38,14.60
2018,04,22,16,39,14.60
2018,04,22,16,40,14.70
2018,04,22,16,41,14.70
2018,04,22,16,42,14.70
2018,04,22,16,43,14.70
2018,04,22,16,44,14.70
2018,04,22,16,45,14.70
2018,04,22,16,46,14.70
2018,04,22,16,47,14.60
2018,04,22,16,48,14.60
2018,04,22,16,49,14.60
2018,04,22,16,50,14.60
2018,04,22,16,51,14.60
2018,04,22,16,52,14.60
2018,04,22,16,53,14.70
2018,04,22,16,54,14.80
2018,04,22,16,55,14.90
2018,04,22,16,56,15.00
2018,04,22,16,57,15.10
2018,04,22,16,58,15.10
2018,04,22,16,59,15.20
2018,04,22,17,00,15.20
2018,04,22,17,01,15.10
2018,04,22,17,02,15.00
2018,04,22,17,03,14.90
2018,04,22,17,04,14.80
2018,04,22,17,05,14.80
2018,04,22,17,06,14.80
2018,04,22,17,07,14.70
2018,04,22,17,08,14.70
2018,04,22,17,09,14.70
2018,04,22,17,10,14.70
2018,04,22,17,11,14.80
2018,04,22,17,12,14.80
2018,04,22,17,13,14.80
2018,04,22,17,14,14.90
2018,04,22,17,15,14.90
2018,04,22,17,16,15.00
2018,04,22,17,17,15.10
2018,04,22,17,18,15.10
2018,04,22,17,19,15.20
2018,04,22,17,20,15.30
2018,04,22,17,21,15.20
2018,04,22,17,22,15.20
2018,04,22,17,23,15.20
2018,04,22,17,24,15.10
2018,04,22,17,25,15.10
2018,04,22,17,26,15.10
2018,04,22,17,27,15.10
2018,04,22,17,28,15.10
2018,04,22,17,29,15.10
2018,04,22,17,30,15.10
2018,04,22,17,31,15.10
2018,04,22,17,32,15.10
2018,04,22,17,33,15.10
2018,04,22,17,34,15.10
2018,04,22,17,35,15.10
2018,04,22,17,36,15.10
2018,04,22,17,37,15.00
2018,04,22,17,38,15.00
2018,04,22,17,39,15.00
2018,04,22,17,40,15.00
2018,04,22,17,41,15.10
2018,04,22,17,42,15.10
2018,04,22,17,43,15.10
2018,04,22,17,44,15.10
2018,04,22,17,45,15.10